Wind_Speed
55 54 53 53 53 51 49 47 47 49 49 47 48 48 49 49 49 52 54 56 57 54 52 53 55 56 55 58 59 54 51 48 45 43 44 47 48 48 49 48 48 48 45 41 37 32 27 23 20 19 26 33 39 46 48 44 42 41 39 38 39 39 38 38 37 36 35 35 35 36 38 38 35 33 33 33 33 33 34 35 36 36 36 35 34 33
53 52 52 51 49 47 46 44 45 46 46 46 46 46 47 48 49 53 56 59 59 54 52 53 54 53 54 57 58 53 50 47 43 42 45 48 49 48 48 48 47 46 42 37 31 26 24 27 28 29 36 42 45 46 47 47 44 42 40 38 38 38 37 37 36 35 36 37 38 39 41 39 35 34 34 34 33 32 31 32 33 34 35 35 34 33
51 51 50 47 45 44 43 43 43 45 45 45 46 46 46 48 50 54 58 60 59 52 50 53 53 52 54 56 56 53 49 47 44 43 47 49 48 48 48 48 47 44 38 32 30 31 37 41 41 43 45 45 43 45 48 48 43 40 41 40 39 40 39 39 38 38 39 39 39 39 39 38 36 36 36 36 36 34 32 31 30 31 33 34 34 34
49 48 46 43 43 43 42 42 43 44 45 45 46 45 46 49 52 55 58 59 55 49 48 50 51 52 53 54 54 52 49 48 45 44 47 49 48 49 49 48 46 42 36 32 33 38 42 43 42 44 48 44 39 44 49 47 42 40 41 41 40 40 41 42 42 43 42 40 39 39 38 38 38 38 38 38 37 35 33 31 30 31 32 33 35 35
47 44 42 42 42 42 42 42 42 43 44 45 44 44 47 51 53 55 56 55 51 47 47 49 49 49 49 51 52 51 49 47 45 45 47 48 49 50 49 47 44 40 36 35 38 40 40 41 42 45 49 48 42 43 47 47 44 43 44 44 43 42 42 44 45 44 43 40 39 40 38 38 39 40 40 39 38 36 34 32 32 32 32 33 35 36
44 41 41 42 41 41 41 42 42 43 43 43 43 45 49 52 52 53 53 52 49 47 47 48 48 47 47 50 52 51 50 48 46 46 47 49 50 50 48 46 43 39 38 38 40 39 38 40 43 48 51 51 48 46 45 46 46 46 48 47 46 45 44 44 44 43 41 41 40 39 37 38 40 42 41 40 39 38 36 35 34 34 33 33 33 34
42 40 41 41 40 40 40 41 41 41 41 42 44 46 50 51 50 50 51 50 48 46 45 46 46 45 46 48 51 51 49 47 45 45 47 50 50 49 46 44 42 40 39 39 39 37 37 40 43 48 52 52 52 50 45 43 45 47 49 50 51 51 48 46 45 43 42 41 42 41 39 39 40 40 40 40 39 38 38 38 37 36 35 34 33 33
41 39 40 40 39 39 39 41 41 41 41 43 45 46 48 49 48 48 48 47 46 44 43 43 44 44 43 44 48 49 48 45 43 43 46 49 49 46 44 43 42 41 41 38 37 37 38 39 42 47 51 53 53 52 48 45 44 44 45 47 49 51 51 48 46 46 45 44 46 46 43 41 40 39 39 39 38 38 38 39 39 39 38 36 34 33
39 38 39 38 38 38 39 40 39 40 41 42 43 43 45 46 45 45 44 44 43 41 39 39 39 42 43 44 47 48 45 43 42 42 46 48 47 44 43 43 42 43 42 37 36 38 39 39 42 46 51 53 53 53 52 51 48 45 45 46 47 49 50 49 47 47 46 46 48 49 47 44 42 41 41 40 40 40 41 42 42 42 40 39 37 35
38 38 37 37 38 38 39 39 38 38 40 40 39 39 41 42 42 41 41 41 40 37 36 35 36 40 43 45 47 46 42 41 41 42 46 48 45 43 42 43 43 44 42 39 38 41 41 40 42 46 50 52 53 54 54 53 53 51 48 48 48 49 50 50 48 47 46 47 47 48 48 47 46 44 44 43 43 44 44 44 44 43 42 40 39 37
38 36 36 37 38 38 37 37 37 38 38 38 36 38 40 41 40 40 39 39 36 34 34 34 35 39 41 42 44 43 40 40 41 42 45 45 42 41 42 43 43 44 43 42 42 42 41 40 42 45 49 52 54 55 53 52 53 53 51 49 48 48 50 50 50 48 47 46 46 47 48 48 48 47 46 45 45 44 43 43 43 43 42 40 39 37
36 35 36 37 36 36 36 35 36 37 37 36 36 38 39 40 40 38 38 36 34 34 35 34 36 39 40 41 41 39 39 41 41 41 43 43 40 39 41 42 43 44 44 44 43 41 40 41 42 44 49 52 54 56 53 49 50 51 51 51 50 48 48 48 48 48 48 46 45 46 47 48 48 48 47 45 43 42 41 40 42 42 40 38 36 36
35 35 35 35 35 35 34 34 35 36 36 36 37 37 38 39 38 37 36 34 33 35 36 37 40 41 41 41 39 37 39 41 40 41 42 41 39 40 41 42 43 45 45 44 42 41 41 42 43 45 48 51 53 55 54 48 46 48 49 50 49 48 47 47 46 47 48 47 46 46 47 47 48 47 46 43 41 39 38 39 39 39 38 37 36 35
35 34 35 35 36 35 34 33 35 35 35 35 36 36 37 38 37 36 36 34 34 36 37 40 42 40 40 39 37 38 40 40 39 39 39 38 39 40 42 44 45 44 44 43 42 42 43 43 43 44 47 49 51 54 54 49 46 46 47 48 47 47 47 47 47 48 50 50 48 47 47 47 47 46 44 42 40 38 38 38 38 38 37 37 37 36
34 34 35 36 35 34 33 34 35 35 34 34 35 36 37 38 37 37 37 36 36 37 39 41 40 38 38 37 36 36 37 37 37 37 37 37 37 39 41 42 43 43 43 42 42 43 45 44 44 44 47 49 50 53 54 51 48 46 45 46 46 47 48 49 50 51 53 54 52 50 49 47 45 44 42 41 41 40 39 38 38 38 38 37 37 38
35 34 34 34 34 33 32 34 35 34 33 32 33 34 36 36 37 37 36 36 36 37 39 39 37 35 34 34 34 33 34 34 34 34 35 36 36 37 38 39 39 41 42 42 42 44 45 44 43 45 47 48 49 52 53 51 49 47 45 45 46 47 48 49 49 50 52 55 54 52 51 50 48 45 43 42 43 43 42 40 40 40 39 38 38 39
34 34 33 33 33 32 32 33 33 32 32 33 33 35 37 37 38 37 36 36 36 38 38 38 36 33 32 32 30 30 31 31 31 31 32 34 36 36 36 36 38 40 40 41 42 43 43 43 43 45 47 48 49 50 51 50 48 47 46 46 45 45 46 46 46 47 50 53 53 53 52 52 51 49 46 47 47 45 43 42 41 41 41 40 40 41
33 33 32 32 32 32 31 31 31 31 33 34 35 37 38 38 38 37 36 36 37 37 37 37 35 32 32 30 27 28 31 31 30 28 29 32 34 35 36 36 37 38 38 38 40 40 41 41 42 44 47 48 49 50 49 49 49 48 49 49 47 45 45 46 46 46 48 50 52 52 52 52 53 52 51 51 50 47 45 43 41 40 41 42 43 44
32 31 30 31 31 31 31 31 31 32 33 34 36 37 37 37 37 36 37 37 37 37 37 36 33 31 31 30 30 32 33 33 30 27 28 32 32 33 34 34 34 35 35 35 37 38 39 39 40 42 45 47 50 50 48 48 48 49 50 52 52 50 48 47 47 47 47 48 49 50 50 51 51 51 51 50 48 46 45 44 42 41 40 41 43 44
32 31 31 31 30 30 31 32 33 33 33 35 36 36 36 36 36 37 37 37 37 38 37 36 34 32 33 32 33 34 34 33 31 30 31 32 31 30 31 33 34 33 32 33 35 36 36 36 36 37 39 44 47 49 47 44 46 48 50 53 55 55 53 50 49 48 47 46 46 46 46 46 47 47 48 47 46 45 45 44 44 43 42 42 43 44
32 32 33 32 31 30 32 33 32 32 33 34 34 34 35 36 37 37 37 38 38 38 37 35 34 34 34 33 33 33 33 32 31 30 31 30 29 29 30 31 33 32 32 32 33 34 32 31 30 31 33 35 38 42 44 44 44 46 48 51 53 54 53 51 49 49 47 45 42 42 42 43 44 45 46 48 48 49 48 48 47 47 47 47 47 46
32 33 34 34 32 31 32 33 32 31 32 33 33 33 34 36 37 37 37 37 38 38 37 35 35 35 34 32 32 33 32 32 31 30 29 29 28 27 27 27 30 32 33 33 33 30 26 24 26 29 31 28 29 35 41 44 46 46 47 48 49 51 50 48 47 47 46 43 40 39 39 40 42 44 46 48 50 51 52 51 51 51 52 52 52 52
31 32 35 34 33 32 32 32 32 32 32 33 33 33 35 36 36 36 37 37 38 38 36 35 35 34 33 31 31 32 32 32 32 31 29 29 28 27 26 26 29 30 30 32 34 31 26 25 31 36 34 28 30 36 41 45 48 49 49 49 48 49 49 47 45 45 44 42 39 36 32 31 34 39 42 45 49 52 54 54 54 55 55 55 55 55
32 33 36 35 34 33 33 33 33 32 31 32 33 34 36 36 35 36 38 39 39 38 37 36 35 34 33 31 30 31 33 33 32 31 31 30 29 28 27 29 31 31 30 33 38 38 36 35 39 42 37 29 30 37 40 44 48 48 45 43 44 48 51 49 46 44 43 41 39 34 28 25 26 29 33 36 40 43 47 50 52 53 54 55 55 55
33 34 37 37 35 34 34 34 33 32 31 32 32 33 35 35 36 37 38 39 38 38 38 38 37 37 36 35 33 33 34 33 30 31 33 32 29 29 29 30 31 34 35 37 40 43 44 43 43 44 39 32 32 35 35 36 39 40 38 37 38 41 44 47 47 45 43 41 38 35 31 31 31 30 30 31 33 36 41 44 48 51 53 55 56 57
33 35 37 38 36 35 35 35 34 33 34 33 32 33 34 35 36 38 38 38 37 36 36 37 38 39 39 38 38 38 37 34 31 32 35 34 32 32 32 31 32 35 37 39 40 43 46 47 47 46 45 43 42 42 41 40 41 43 43 43 43 41 41 44 46 46 45 44 41 39 36 36 37 36 36 37 37 39 43 48 51 54 57 59 60 61
35 36 38 38 37 36 36 35 35 35 34 34 33 33 33 35 36 37 38 39 38 37 37 37 38 39 39 39 40 42 41 38 34 35 39 39 37 36 35 34 36 39 40 41 42 43 46 49 51 50 50 50 50 50 50 49 49 51 50 49 50 49 48 48 47 47 48 47 46 45 43 41 42 43 44 46 46 47 50 53 53 52 53 55 57 59
38 38 38 38 37 37 37 37 37 36 35 35 34 34 34 34 35 36 37 38 38 39 40 39 39 39 39 39 40 41 42 41 39 38 41 43 42 42 41 39 41 44 43 42 44 47 49 51 52 53 54 56 57 57 56 55 55 57 56 55 55 54 53 53 51 49 49 49 49 52 51 49 48 48 49 51 53 54 54 54 52 50 49 48 48 50
41 41 40 39 39 39 39 39 38 37 37 36 35 34 34 34 35 35 36 36 37 39 40 40 41 41 41 42 42 41 41 42 43 42 41 43 45 46 47 48 48 48 48 46 46 50 53 53 53 55 56 59 61 61 60 58 58 59 57 56 56 56 55 57 55 53 52 52 52 54 55 55 54 53 52 53 54 56 55 54 54 54 51 48 46 46
44 44 43 42 41 41 41 41 40 40 39 37 36 34 35 36 36 36 37 37 38 39 40 40 41 43 44 44 44 43 42 43 45 44 44 45 48 49 50 53 53 51 52 54 54 54 54 55 56 57 58 59 61 62 61 59 58 57 54 51 51 51 51 54 55 55 55 56 55 55 56 57 57 55 55 54 55 57 58 56 55 54 52 51 49 47
46 46 45 44 43 42 43 42 42 42 41 40 39 38 38 39 38 38 38 38 38 39 40 41 41 42 43 43 43 44 44 44 46 47 47 49 51 53 53 54 54 52 54 58 59 58 57 57 58 59 59 60 61 61 61 59 58 58 54 51 49 48 47 50 51 52 53 53 53 52 53 53 52 53 55 55 54 57 57 55 55 55 52 50 50 50
50 48 47 47 45 44 44 44 44 44 43 43 43 43 43 43 42 41 41 41 40 38 39 41 42 43 44 43 43 44 45 45 46 48 49 49 51 55 56 56 55 56 56 58 60 60 61 60 60 61 61 61 60 61 61 59 59 58 56 54 52 50 50 50 50 51 52 52 51 50 50 50 49 50 51 51 51 53 52 49 49 52 52 51 51 54
52 51 50 50 49 47 45 44 45 45 43 43 43 44 45 46 46 46 44 43 42 40 38 39 39 41 44 45 46 47 47 47 47 48 50 52 52 53 56 58 58 58 59 60 61 61 62 64 65 65 63 62 62 62 62 62 62 61 61 59 58 58 57 56 56 56 56 56 56 55 56 57 58 59 58 55 52 54 53 48 45 48 53 57 58 60
54 53 53 53 52 50 48 46 47 46 43 43 45 45 47 49 49 48 46 43 41 40 38 37 35 36 41 44 46 48 46 44 44 46 49 52 52 51 53 57 60 60 60 61 63 64 64 66 68 68 66 65 65 65 65 65 66 66 66 65 63 63 63 63 63 63 63 63 64 65 66 67 68 68 68 66 64 63 61 58 53 53 56 61 64 65
56 56 56 56 54 54 53 52 53 51 49 50 51 50 50 52 52 51 48 45 42 41 41 39 38 37 39 41 43 45 44 41 41 43 47 51 53 53 54 56 59 61 61 61 63 65 66 67 68 68 67 66 66 67 68 68 69 70 69 68 67 67 67 68 68 69 69 70 71 72 74 75 75 74 73 73 74 72 70 69 68 67 67 67 69 71
58 58 58 58 57 56 57 57 58 58 57 56 54 52 51 53 54 54 52 50 47 45 45 44 43 42 42 42 40 41 43 44 44 46 49 52 55 58 59 59 59 61 63 64 65 66 67 68 68 68 69 69 68 68 69 70 71 72 71 71 71 70 70 71 72 73 74 76 77 79 80 80 79 78 78 77 77 77 76 76 76 76 77 77 76 77
59 59 60 59 59 59 60 60 60 61 61 59 55 53 52 54 55 55 54 54 52 50 50 50 48 47 47 45 41 38 40 43 45 48 51 55 58 61 63 64 62 62 64 65 67 69 71 71 71 71 71 71 70 71 71 72 73 73 74 75 76 76 76 77 78 79 80 81 82 82 82 82 81 80 79 79 78 78 78 78 78 79 80 80 81 81
60 61 61 60 60 61 62 62 63 63 64 62 57 54 54 56 56 56 55 56 55 55 55 55 54 53 53 52 49 45 44 45 46 47 50 53 56 58 62 65 66 66 67 68 69 71 72 73 74 74 74 73 73 74 76 76 77 78 78 80 81 81 81 81 82 82 81 81 81 81 81 81 81 81 80 79 79 79 79 79 79 79 79 79 80 80
61 61 61 61 62 62 63 64 65 66 67 65 60 57 56 57 57 57 57 58 58 59 60 60 59 59 58 57 57 55 53 52 53 53 54 55 56 56 58 60 62 64 67 70 71 72 72 73 74 75 75 75 76 76 78 80 81 81 82 82 81 81 80 80 80 80 80 80 80 81 81 81 82 81 81 81 80 80 80 79 79 78 78 79 79 79
63 62 62 63 63 63 64 65 66 68 68 68 65 62 60 59 59 58 58 59 61 63 64 64 63 63 62 62 63 62 60 59 60 61 62 62 61 60 59 57 57 58 61 64 67 70 71 72 74 75 75 75 76 77 78 79 80 81 81 81 81 81 81 81 81 81 81 81 82 82 83 83 83 83 82 82 82 81 80 80 80 79 79 79 80 80
64 64 64 64 64 65 66 67 68 70 70 70 68 66 64 62 61 61 62 62 62 63 64 64 65 65 64 65 67 67 67 66 65 65 65 65 65 64 63 61 60 60 60 61 62 64 65 67 69 71 72 73 75 76 78 79 80 81 81 81 82 82 82 82 82 83 83 84 84 84 83 83 83 83 83 83 82 82 82 82 81 81 81 81 81 81
66 65 65 65 66 66 67 69 70 71 72 72 71 69 67 65 64 64 65 65 64 63 63 63 64 64 65 67 68 68 68 68 68 68 68 67 66 66 66 66 66 65 64 64 64 64 65 65 66 68 69 70 71 72 74 75 76 77 78 78 79 79 79 80 80 81 81 82 82 82 82 82 82 82 82 82 82 82 82 82 82 82 82 82 81 81
67 67 66 66 67 68 69 71 73 73 73 73 72 71 69 67 67 66 66 67 67 66 65 64 65 66 67 69 69 67 66 66 67 69 70 70 69 68 68 69 70 71 70 69 69 69 69 69 70 71 71 71 72 72 73 73 73 74 75 76 77 77 78 78 79 79 80 80 81 81 81 81 81 81 81 81 81 81 81 81 81 80 80 80 80 80
69 70 70 69 70 71 72 73 75 75 75 74 73 73 72 70 69 68 68 68 69 69 69 68 68 68 69 71 71 69 67 66 66 67 69 70 71 71 70 70 71 72 73 74 74 74 74 75 75 75 75 75 76 76 76 76 76 76 77 77 78 78 78 79 79 80 80 80 80 80 80 80 80 80 80 80 80 80 80 80 80 80 80 79 79 79
69 72 73 73 72 73 74 75 76 77 76 75 75 75 74 74 73 72 71 70 70 71 72 72 71 71 71 72 72 71 71 70 69 69 70 70 71 71 71 71 71 71 72 73 74 75 75 76 76 75 75 75 76 76 76 76 76 77 77 78 78 78 78 78 78 78 79 79 79 79 79 79 79 79 79 79 79 79 80 80 80 81 81 81 81 80
67 71 74 75 75 75 76 77 78 79 79 78 77 76 76 76 75 75 74 74 73 73 74 75 75 75 74 73 73 73 73 73 73 73 73 73 72 72 72 73 73 73 72 72 72 73 73 74 74 74 74 74 74 75 75 75 75 76 76 77 77 77 77 77 78 78 79 79 79 79 79 79 79 80 80 80 80 81 81 82 82 82 82 83 83 83
63 67 72 74 76 77 77 79 80 81 81 81 80 80 78 77 77 77 77 77 77 77 77 77 77 78 78 76 74 74 74 74 74 74 74 75 75 76 76 76 76 75 74 73 73 73 74 75 75 76 75 75 76 76 77 77 76 76 77 77 77 77 78 78 79 80 80 80 80 80 80 81 81 82 82 82 82 82 83 83 84 84 84 85 85 86
60 63 67 72 75 77 79 80 81 82 83 83 83 83 82 81 80 79 79 80 80 79 79 79 80 80 81 80 78 77 76 75 74 74 74 75 77 78 78 78 78 77 76 75 74 75 76 77 78 78 77 77 78 78 78 78 78 78 78 78 78 79 79 80 80 80 81 81 81 81 82 82 83 83 84 84 84 84 85 85 86 86 86 87 88 88
57 59 63 67 71 74 78 80 82 83 84 84 85 85 85 84 83 82 82 82 82 82 82 82 82 82 82 82 81 80 79 78 77 76 76 77 78 79 80 80 79 78 77 77 77 77 78 79 80 79 78 79 80 80 80 80 80 80 80 80 80 80 81 81 82 82 82 83 83 84 84 85 85 86 86 86 87 88 88 89 89 90 90 91 91 91
54 56 59 62 65 69 74 77 80 83 84 85 85 86 86 86 85 85 85 84 84 84 84 84 85 85 85 84 83 83 82 81 81 80 81 81 81 81 82 82 81 80 80 79 79 80 81 81 81 80 80 81 82 82 82 83 83 83 83 83 84 84 85 85 85 86 87 87 88 88 89 89 89 90 90 91 91 92 92 93 94 94 94 95 95 95
50 54 57 59 62 65 68 72 75 79 82 84 85 85 85 86 87 87 88 88 88 87 87 87 87 87 87 86 86 86 86 85 85 85 85 85 85 85 85 84 84 83 83 83 83 83 83 83 82 82 83 84 84 84 85 85 86 86 86 87 87 87 88 89 89 90 91 91 92 92 93 93 94 94 95 95 95 96 97 98 99 99 98 98 99 99
Wind_Direction
270 268 264 260 258 258 257 255 253 253 253 252 251 250 250 250 249 250 250 249 247 244 244 245 246 246 247 250 251 250 249 248 245 245 245 247 248 249 250 251 251 251 251 252 253 258 263 265 265 254 246 244 243 246 253 257 257 258 263 269 271 272 272 272 274 274 273 278 282 281 284 288 289 292 298 300 301 299 294 289 285 282 279 277 275 274
267 263 260 259 258 258 257 255 254 254 253 252 251 249 249 249 248 247 247 246 244 241 240 242 243 245 246 248 250 249 247 246 243 241 241 242 244 246 248 249 250 250 250 250 248 244 233 223 216 218 232 238 236 242 250 252 254 260 265 268 269 270 270 271 271 270 273 280 284 284 283 285 288 291 295 297 301 305 303 298 292 286 283 280 276 273
263 260 259 259 258 257 256 254 253 253 253 252 250 249 248 247 246 245 245 245 245 242 241 242 242 242 243 245 247 248 246 244 240 237 239 241 242 243 245 247 248 249 248 245 238 225 216 215 212 211 221 230 235 240 247 251 254 258 263 265 265 265 267 269 269 270 275 279 282 283 281 280 284 289 291 293 298 301 304 304 300 293 288 284 280 275
260 258 259 258 256 255 254 253 252 252 251 250 249 248 246 245 244 243 244 245 245 244 242 243 243 243 244 245 246 246 245 243 239 237 238 240 240 241 243 244 247 248 246 240 233 225 220 220 219 217 220 225 231 238 244 249 250 252 258 261 260 260 263 267 268 270 274 276 276 279 281 280 283 287 289 292 296 299 302 305 305 302 296 290 285 280
258 257 257 256 254 254 253 252 251 250 250 249 247 245 244 243 242 243 244 245 245 243 241 241 242 243 244 246 246 244 243 241 239 237 237 239 239 240 241 243 245 245 242 236 231 229 226 224 220 218 221 223 227 234 239 243 243 244 250 255 257 258 260 262 264 265 268 271 274 277 281 282 284 286 288 291 295 298 300 303 306 306 302 297 292 287
257 255 254 254 253 253 253 252 251 249 248 247 245 243 242 242 242 242 244 245 243 241 240 239 239 240 241 242 243 242 240 238 237 236 237 238 238 239 241 242 243 242 239 235 233 232 229 225 221 216 218 223 227 232 236 238 239 241 245 250 253 256 258 258 259 261 263 268 272 275 279 282 283 285 288 290 292 295 297 299 303 304 301 299 296 292
255 253 253 253 253 252 252 252 250 248 246 244 242 241 241 242 242 243 244 244 244 241 240 240 239 238 238 240 242 241 240 238 237 237 238 238 238 240 241 241 242 240 238 236 235 234 229 225 222 219 220 223 226 230 233 236 240 242 245 248 250 252 255 256 257 259 261 265 269 272 277 281 283 285 286 288 289 292 294 296 299 300 299 299 297 293
253 253 252 252 253 253 252 250 248 245 243 242 241 241 242 243 243 243 244 244 244 242 240 240 239 237 236 238 241 241 240 239 237 236 238 238 238 239 240 241 240 239 238 236 235 235 230 225 223 222 222 223 225 229 232 235 239 242 246 249 249 250 253 255 258 258 259 262 265 269 274 280 282 282 283 285 287 290 292 294 296 297 298 298 297 295
252 252 252 251 252 251 250 248 246 244 243 242 242 242 244 245 244 244 244 244 243 241 239 239 239 237 233 232 236 238 238 238 236 234 234 235 237 238 239 239 239 238 237 234 233 235 232 227 225 223 223 224 226 229 233 235 238 243 249 251 251 251 252 255 259 260 259 261 263 266 272 277 280 282 282 284 286 288 290 292 295 295 295 296 297 296
251 250 251 251 250 249 248 247 245 243 243 242 242 242 243 243 242 241 241 241 241 240 237 235 235 236 234 233 236 238 236 235 234 232 233 234 236 237 237 237 237 238 237 233 229 232 231 228 226 224 225 227 227 230 233 235 238 243 248 252 252 252 253 255 259 261 261 263 264 266 271 275 279 281 283 285 286 288 290 293 295 294 293 293 294 295
250 249 249 249 249 249 249 247 244 242 241 240 239 238 239 239 238 238 238 238 237 235 233 231 231 235 235 234 236 237 235 233 231 230 232 234 235 235 235 235 236 236 236 233 229 229 230 228 226 226 227 228 228 228 232 236 238 242 247 252 254 255 256 257 259 260 262 264 266 268 271 274 278 280 282 283 286 288 290 293 293 291 291 292 292 292
250 249 248 249 250 250 249 246 243 241 240 238 236 235 236 237 236 235 235 235 233 231 229 226 227 231 232 231 232 233 232 231 229 228 231 232 230 230 232 233 234 235 235 234 232 230 229 227 227 227 228 229 228 227 231 237 240 243 247 251 254 256 258 258 259 260 262 265 267 269 269 272 276 279 279 280 283 286 289 292 291 289 288 289 288 288
248 248 248 248 249 248 247 245 243 241 238 236 234 234 235 236 236 234 234 232 230 230 228 225 225 227 230 230 229 228 228 229 228 227 230 231 229 227 228 230 231 233 234 235 234 232 230 227 226 227 228 230 229 228 232 238 241 244 248 250 253 254 255 256 258 261 263 265 268 268 267 269 273 276 276 277 281 287 290 291 290 288 285 283 283 284
246 247 247 247 248 247 245 243 241 239 237 235 234 234 234 234 233 232 231 228 227 227 228 228 227 227 230 231 228 226 227 227 227 227 229 230 229 227 228 229 231 233 235 236 236 234 232 229 227 228 229 231 231 230 232 236 239 242 246 248 251 252 252 253 255 260 264 265 266 266 267 270 274 276 276 277 280 287 290 290 289 286 283 281 279 280
245 245 246 248 249 248 246 243 241 238 236 235 235 234 234 233 232 231 229 226 225 226 227 230 230 229 231 232 230 228 228 228 226 226 226 227 228 229 230 231 232 233 234 234 234 234 234 232 229 229 231 232 233 232 233 235 237 239 242 246 250 253 254 254 256 260 262 262 262 265 268 271 275 276 277 280 282 286 290 291 290 287 284 281 277 276
244 244 246 249 250 250 248 246 244 240 237 235 234 233 233 233 232 231 230 227 225 226 228 230 231 229 230 232 232 231 230 230 229 227 226 226 225 227 230 232 232 233 233 232 233 234 236 235 231 229 230 231 231 233 234 235 236 239 242 246 252 256 258 258 259 260 259 259 260 263 267 270 272 274 276 280 283 285 288 290 289 286 283 279 276 274
246 246 247 249 251 251 249 247 245 242 236 232 230 229 228 228 228 228 227 226 225 226 227 229 229 226 227 229 231 233 231 228 227 226 226 226 225 225 226 227 229 230 231 231 233 235 236 236 233 230 230 230 229 231 234 234 235 239 243 247 253 259 261 261 261 260 258 258 260 263 265 267 269 271 273 278 282 283 285 287 286 283 279 276 275 274
247 248 249 250 251 251 249 247 245 241 237 232 229 228 227 226 226 226 226 225 225 226 228 229 229 226 225 224 222 228 230 224 220 221 225 226 225 225 225 224 228 231 231 231 232 233 234 233 232 229 228 228 228 230 232 233 234 238 242 247 253 259 261 262 262 262 260 259 259 261 263 264 266 267 270 275 280 281 282 284 283 280 276 272 271 272
245 247 249 249 250 250 248 246 243 239 235 232 230 229 228 228 227 226 226 225 225 225 227 228 227 224 223 220 215 218 223 221 215 213 221 226 223 223 224 223 226 229 229 230 229 229 230 230 229 229 228 227 228 230 233 236 238 241 243 247 253 258 259 259 260 261 261 259 258 259 261 262 264 267 270 275 279 280 280 280 280 279 277 274 272 273
241 243 243 244 247 249 248 244 241 238 235 233 231 230 229 227 226 226 226 226 225 225 225 225 224 222 221 218 215 216 218 219 215 209 215 223 220 218 219 219 221 224 224 225 226 227 227 227 228 231 231 229 229 232 237 242 245 247 248 250 254 257 259 259 259 259 259 259 258 260 262 264 266 269 272 274 276 277 278 277 277 276 277 277 277 277
239 240 240 239 241 244 246 244 242 240 238 237 235 233 230 228 226 225 225 226 226 226 226 225 223 222 221 219 218 218 217 217 216 213 216 221 220 215 214 217 220 220 221 222 223 224 225 227 231 232 231 233 235 238 240 244 247 249 251 253 255 256 258 259 258 258 258 258 259 262 265 268 271 273 274 275 276 276 276 275 275 275 277 279 280 280
239 241 242 240 239 240 242 243 242 239 237 235 233 232 231 229 227 225 225 226 227 227 226 225 224 224 223 220 219 220 220 217 216 217 219 220 220 216 215 219 222 220 220 220 219 215 214 222 228 225 225 231 237 241 244 246 248 250 253 255 256 254 253 256 256 256 257 258 261 266 270 274 275 276 276 277 276 276 275 275 275 275 276 278 280 281
240 241 243 242 241 240 240 241 240 238 236 234 231 228 228 228 227 227 227 226 226 227 226 224 224 224 223 221 221 223 222 219 216 215 213 213 214 211 210 217 223 222 221 222 220 207 198 209 220 220 222 225 226 233 243 249 252 255 257 259 257 252 249 252 256 257 257 257 260 267 273 274 275 278 280 279 277 276 275 275 275 275 276 277 278 280
240 239 240 240 239 239 239 239 239 238 235 232 229 227 227 226 225 225 227 227 226 225 224 223 222 222 220 217 218 223 226 223 218 213 209 210 209 205 205 213 218 217 214 219 220 208 198 205 214 217 221 222 222 232 243 249 253 256 257 258 258 254 251 252 255 257 258 257 260 264 265 259 260 269 276 278 276 274 272 272 273 274 276 277 278 280
239 238 238 239 238 238 239 240 240 238 234 230 226 225 226 226 224 223 224 226 227 226 225 223 222 221 219 213 209 215 222 221 216 214 212 211 207 201 201 207 213 214 212 215 218 211 206 207 210 213 216 218 222 229 234 238 242 243 243 245 248 248 250 252 254 255 256 256 257 260 257 251 250 256 262 268 271 269 268 270 273 274 275 276 278 280
237 238 240 241 241 239 238 238 238 236 234 230 224 222 223 223 223 224 223 223 224 225 227 227 225 223 222 217 209 209 214 212 210 214 214 210 206 201 199 200 205 212 215 217 218 215 212 210 211 213 217 221 225 229 231 234 236 236 237 240 242 243 244 248 252 254 254 253 253 255 254 250 252 255 255 259 266 269 271 275 277 278 277 277 277 277
234 236 239 241 241 238 236 235 234 233 233 231 226 223 224 223 222 222 223 223 221 221 223 226 227 228 227 224 217 213 213 209 207 212 214 210 206 203 199 200 208 215 219 220 220 218 216 213 214 217 221 227 232 236 239 241 241 242 243 244 244 245 246 248 251 253 253 251 251 253 253 251 251 252 252 254 260 267 273 278 281 281 281 282 282 281
232 233 235 237 237 237 235 233 232 231 231 230 227 224 226 226 225 222 222 223 222 221 221 223 225 227 228 228 224 219 215 210 208 213 213 208 205 204 202 203 212 218 220 219 218 219 219 219 220 224 230 235 239 242 244 245 246 247 248 248 246 246 246 247 249 250 251 251 250 250 252 254 253 252 253 254 257 262 268 274 277 278 280 282 282 282
232 231 230 230 232 234 235 234 232 230 229 230 229 227 227 229 229 226 222 221 221 221 221 223 224 225 226 226 225 222 218 213 213 216 214 207 203 205 207 209 214 220 221 218 217 218 220 223 226 231 235 239 241 244 246 248 249 250 250 250 249 248 247 248 248 249 250 251 252 251 251 254 256 255 254 256 258 261 266 270 272 273 277 277 274 273
233 232 230 228 228 230 232 232 231 229 228 229 229 228 227 229 231 231 228 224 222 221 219 221 224 227 227 227 227 225 220 216 215 216 217 213 208 208 212 214 216 221 225 223 222 220 220 223 228 231 235 239 241 244 246 247 248 248 248 247 247 249 249 249 249 250 251 253 255 256 256 257 259 259 257 258 260 262 264 267 268 271 274 272 268 267
232 233 232 230 227 227 228 228 228 228 228 228 227 227 228 229 230 232 232 229 227 225 222 220 221 225 229 230 231 230 226 221 218 216 217 217 214 213 215 216 216 220 224 226 225 224 223 224 227 230 233 237 240 242 244 245 246 247 245 242 243 245 246 247 247 248 250 252 254 256 258 259 261 261 260 259 260 261 263 265 266 268 270 268 265 264
228 230 231 231 229 226 225 227 229 230 229 229 228 228 230 232 232 232 232 231 229 228 226 224 222 222 224 226 229 232 232 228 226 223 221 220 220 218 218 219 219 221 225 226 226 226 226 226 229 230 231 234 237 239 241 243 245 246 244 240 239 240 241 243 244 244 246 248 249 251 256 258 260 261 261 259 257 259 263 263 261 262 264 264 263 264
227 228 229 230 230 228 226 227 230 229 229 231 230 229 230 232 234 235 235 234 233 229 226 226 226 226 225 224 225 228 230 231 231 231 230 229 227 225 224 223 223 223 224 225 226 226 227 229 230 231 232 234 236 237 238 240 242 244 243 241 240 240 241 243 245 246 248 249 249 250 254 258 261 262 261 257 255 257 260 257 251 250 254 259 263 267
226 227 228 229 230 229 227 227 228 227 226 227 228 228 228 229 232 234 235 236 236 235 229 222 220 225 228 229 229 228 229 232 233 233 234 234 232 230 229 227 225 223 223 224 224 225 227 229 231 233 234 236 237 237 237 238 240 241 241 241 241 242 243 245 248 250 252 253 254 256 258 261 264 265 263 260 257 257 257 254 249 246 249 256 263 268
224 226 227 228 229 230 229 229 229 228 226 225 227 228 228 228 231 232 232 232 232 234 233 226 220 222 227 230 233 232 229 228 228 230 232 232 231 230 229 229 228 226 224 224 224 224 226 229 231 233 234 235 236 237 236 236 238 240 240 241 242 243 246 249 251 253 255 257 259 261 263 265 266 266 265 263 262 261 259 256 254 253 253 256 259 263
223 225 227 228 229 229 230 230 232 233 231 230 231 232 230 229 231 232 231 231 230 230 233 233 229 226 227 229 232 232 231 229 228 228 230 230 228 227 228 229 229 229 228 227 225 225 227 229 230 231 232 233 234 235 236 235 235 237 239 241 242 243 245 249 252 254 257 259 261 263 265 266 266 266 265 265 264 263 262 261 259 259 259 259 259 260
223 225 226 228 228 229 230 231 233 235 237 235 234 233 232 231 232 233 233 234 234 232 233 235 235 233 232 231 229 227 229 232 232 231 231 232 231 230 229 229 230 230 231 230 229 228 228 230 232 233 233 234 234 235 236 236 236 237 239 242 244 245 247 249 251 253 255 258 260 262 263 264 265 266 265 265 265 264 264 263 263 263 263 263 263 262
224 225 227 228 228 229 230 231 233 235 238 240 237 234 233 233 234 235 236 237 237 237 236 238 240 240 241 241 237 233 232 235 235 233 232 233 234 233 232 232 231 230 231 232 233 233 232 233 235 237 238 239 239 239 239 241 242 243 245 247 250 251 252 253 253 254 255 257 259 261 263 265 265 266 266 266 266 266 266 266 266 266 266 266 266 266
224 225 226 228 229 230 230 232 233 234 237 240 241 239 237 236 236 236 236 237 238 239 239 240 241 243 244 246 246 243 240 237 236 235 235 237 237 236 236 236 235 234 234 235 236 237 238 238 238 239 241 243 244 244 244 245 247 248 249 250 252 254 255 256 256 257 258 259 261 262 264 265 265 266 266 267 267 267 268 268 268 268 268 268 268 268
223 224 226 227 228 230 231 232 233 235 237 240 242 242 241 241 240 240 239 237 237 238 239 241 242 243 244 245 246 247 245 242 239 237 239 242 243 243 243 243 242 241 240 239 238 239 240 241 241 242 244 245 246 247 248 249 250 252 253 253 254 255 257 259 259 260 261 261 262 263 263 263 264 265 265 266 266 267 267 268 268 268 269 269 269 270
224 225 226 227 228 229 231 232 234 236 239 241 242 243 243 243 243 243 243 241 239 238 239 241 242 243 244 244 245 246 247 246 245 243 242 244 245 248 249 249 247 246 245 244 243 243 243 243 244 245 246 247 248 249 250 251 252 253 254 255 256 258 259 260 260 261 261 262 262 262 262 262 263 263 264 265 266 266 266 266 266 267 267 268 268 269
225 226 226 228 229 230 230 232 234 236 238 241 242 243 244 244 244 244 244 244 243 241 240 241 243 244 243 243 244 245 246 247 248 249 249 248 248 248 249 250 251 250 249 248 248 248 248 248 248 249 249 250 251 251 252 252 253 254 255 256 257 259 259 260 261 261 262 262 263 263 263 264 264 264 264 265 265 266 266 266 266 266 266 267 267 267
227 227 227 228 229 231 231 232 234 236 238 240 242 244 244 244 244 244 244 245 246 245 242 241 242 245 246 246 246 246 246 246 247 249 250 252 252 251 250 250 250 250 251 251 251 251 252 252 253 254 255 256 256 256 256 256 257 257 258 258 259 260 260 261 262 263 264 265 265 266 266 267 267 267 267 267 267 267 267 268 268 267 267 268 268 268
227 228 228 228 229 231 232 233 235 237 238 239 240 242 244 244 245 245 245 245 246 247 246 244 242 242 245 247 248 248 247 246 246 247 248 249 251 252 252 251 250 250 250 251 252 253 253 254 256 257 258 259 259 260 260 260 260 260 260 261 261 261 262 262 263 264 265 265 266 266 267 267 268 268 268 269 269 269 270 270 270 270 270 270 270 270
226 228 228 229 229 230 232 234 236 238 239 240 240 241 242 244 245 246 246 246 246 247 249 249 247 245 243 244 246 247 247 247 247 247 248 248 248 249 250 251 251 250 250 251 252 253 254 255 256 257 257 258 258 259 259 260 260 261 261 261 262 262 263 263 264 264 265 265 266 267 267 268 268 269 269 270 271 271 272 272 273 273 273 273 273 272
228 229 229 230 231 231 232 234 236 238 240 241 242 243 243 244 244 245 246 247 248 248 249 251 251 251 249 247 246 246 246 247 247 247 248 249 249 249 250 250 251 251 251 251 252 253 254 255 256 256 256 257 257 258 259 259 259 260 260 261 262 262 263 264 264 265 265 266 266 267 267 268 269 269 270 270 271 271 271 272 272 272 273 273 273 274
231 231 231 232 233 233 234 235 236 237 239 241 243 244 245 245 245 246 247 248 248 249 250 250 251 252 253 253 251 250 249 248 248 248 249 250 251 251 252 252 253 253 253 253 253 254 255 256 256 256 257 257 258 258 259 259 260 260 260 261 262 262 263 263 263 264 264 265 265 266 266 267 267 268 268 268 269 269 269 270 270 271 271 272 272 273
234 234 234 234 235 235 236 237 238 239 240 241 243 244 246 246 246 246 247 248 249 249 250 251 252 252 253 254 255 255 254 253 253 253 253 253 254 254 255 256 256 257 257 257 257 258 258 258 259 259 260 260 261 261 262 262 262 262 263 263 263 264 264 264 264 265 265 265 266 266 266 267 267 268 268 268 269 269 269 270 270 270 270 271 271 271
237 237 237 237 237 238 238 239 240 241 242 243 244 245 246 247 248 248 248 248 249 250 251 251 252 253 254 255 255 256 257 258 258 257 257 257 257 258 258 259 259 259 260 260 260 260 260 261 262 262 263 264 264 265 266 266 266 267 267 267 268 268 268 268 268 269 269 269 269 269 270 270 270 270 271 271 271 271 272 272 272 272 272 272 272 272
242 242 241 240 240 240 240 241 242 243 244 245 246 246 247 248 249 249 250 250 250 251 251 252 252 253 254 255 256 257 257 258 259 260 260 260 260 260 260 260 260 261 261 261 261 261 262 262 263 264 264 265 265 266 267 267 268 268 269 269 269 270 270 270 271 271 271 272 272 272 272 272 272 272 273 273 273 273 273 273 273 273 273 273 273 273
243 244 245 245 244 244 244 244 244 245 246 247 248 248 248 249 249 250 251 251 251 251 252 252 252 253 254 255 256 257 257 258 258 259 260 261 261 262 262 262 262 262 262 262 262 262 263 263 263 264 264 265 265 266 266 267 267 268 268 268 269 269 270 270 270 270 271 271 271 272 272 272 272 273 273 273 273 273 273 274 274 274 273 274 274 274
Height
10576 10575 10573 10572 10572 10575 10579 10583 10584 10582 10585 10589 10591 10593 10594 10597 10600 10598 10596 10596 10599 10605 10611 10613 10613 10616 10620 10617 10619 10631 10638 10645 10653 10655 10655 10651 10650 10650 10651 10656 10660 10665 10673 10681 10688 10694 10702 10708 10708 10708 10704 10694 10686 10675 10671 10675 10675 10678 10684 10687 10687 10688 10689 10689 10690 10690 10690 10690 10689 10689 10688 10687 10687 10686 10685 10684 10684 10683 10683 10682 10681 10680 10680 10680 10681 10681
10567 10565 10563 10565 10568 10571 10574 10576 10577 10577 10579 10582 10584 10587 10589 10591 10592 10589 10586 10585 10587 10598 10605 10606 10608 10612 10615 10613 10614 10624 10632 10639 10646 10649 10648 10645 10645 10645 10646 10649 10653 10659 10669 10679 10686 10692 10695 10694 10691 10690 10685 10677 10674 10673 10672 10672 10674 10678 10682 10683 10683 10683 10683 10684 10685 10686 10685 10685 10685 10684 10684 10684 10683 10682 10681 10680 10680 10680 10679 10679 10678 10677 10676 10676 10677 10677
10558 10557 10558 10561 10564 10566 10568 10570 10571 10571 10573 10576 10577 10580 10582 10582 10581 10579 10576 10576 10582 10596 10602 10601 10604 10607 10607 10608 10610 10618 10625 10632 10639 10643 10640 10639 10641 10640 10641 10643 10646 10654 10667 10675 10678 10679 10677 10674 10674 10673 10669 10668 10672 10673 10670 10670 10674 10677 10678 10678 10677 10677 10678 10678 10679 10680 10680 10680 10680 10680 10680 10680 10679 10678 10677 10676 10677 10677 10676 10675 10674 10673 10673 10673 10673 10673
10550 10551 10554 10556 10558 10559 10561 10563 10564 10565 10566 10568 10570 10574 10575 10572 10571 10570 10568 10571 10581 10593 10598 10597 10599 10602 10602 10604 10607 10612 10619 10625 10632 10636 10634 10634 10636 10634 10635 10638 10643 10652 10663 10667 10667 10665 10665 10667 10670 10670 10667 10667 10668 10667 10665 10666 10671 10673 10673 10672 10671 10671 10671 10671 10673 10674 10674 10675 10675 10675 10676 10676 10675 10674 10672 10672 10673 10673 10672 10671 10671 10670 10669 10669 10669 10669
10543 10547 10550 10550 10551 10553 10555 10556 10558 10559 10560 10561 10564 10567 10565 10562 10562 10563 10563 10569 10580 10587 10590 10591 10593 10597 10600 10600 10601 10606 10612 10618 10625 10629 10629 10629 10628 10628 10631 10635 10641 10649 10656 10658 10656 10656 10660 10664 10666 10666 10664 10663 10662 10659 10658 10661 10665 10668 10667 10666 10665 10665 10665 10666 10666 10668 10669 10669 10670 10671 10671 10671 10670 10669 10668 10668 10669 10669 10668 10668 10668 10667 10666 10666 10666 10666
10538 10543 10544 10543 10546 10548 10549 10550 10551 10552 10554 10555 10557 10558 10555 10553 10557 10559 10561 10567 10574 10580 10583 10585 10588 10592 10595 10593 10594 10599 10605 10613 10619 10622 10622 10622 10621 10623 10628 10633 10638 10644 10648 10649 10649 10652 10657 10658 10659 10660 10659 10659 10658 10655 10655 10658 10661 10662 10661 10661 10660 10660 10660 10660 10661 10663 10664 10665 10666 10666 10666 10666 10666 10665 10664 10664 10664 10664 10664 10665 10665 10665 10665 10664 10664 10664
10533 10537 10537 10538 10540 10542 10543 10543 10544 10546 10547 10549 10549 10549 10547 10548 10553 10555 10558 10563 10569 10575 10579 10581 10584 10587 10588 10588 10588 10592 10599 10607 10614 10617 10616 10615 10616 10620 10625 10630 10635 10639 10641 10642 10645 10649 10652 10652 10653 10654 10655 10655 10654 10653 10655 10656 10657 10657 10656 10655 10655 10655 10655 10655 10656 10658 10659 10660 10661 10662 10662 10662 10662 10662 10661 10660 10660 10660 10661 10662 10663 10663 10663 10663 10662 10662
10528 10531 10532 10533 10535 10536 10537 10536 10537 10539 10541 10542 10542 10543 10543 10545 10549 10551 10555 10560 10565 10571 10575 10577 10580 10582 10583 10583 10583 10587 10595 10603 10610 10612 10610 10608 10611 10617 10623 10627 10630 10632 10634 10638 10642 10645 10646 10647 10648 10649 10650 10650 10650 10651 10652 10652 10652 10652 10651 10650 10649 10650 10650 10651 10652 10653 10655 10657 10657 10658 10658 10658 10658 10657 10657 10656 10656 10657 10657 10658 10659 10659 10660 10660 10660 10659
10524 10526 10526 10528 10530 10530 10529 10530 10532 10534 10535 10535 10537 10539 10540 10541 10546 10548 10552 10556 10560 10566 10571 10574 10576 10576 10577 10577 10577 10583 10591 10597 10604 10606 10604 10602 10607 10615 10619 10622 10624 10626 10628 10634 10639 10640 10641 10643 10644 10644 10645 10645 10646 10648 10648 10648 10647 10647 10646 10645 10645 10645 10646 10647 10649 10650 10652 10653 10654 10655 10654 10654 10654 10653 10653 10653 10653 10653 10654 10654 10654 10654 10654 10655 10656 10656
10519 10521 10522 10523 10523 10523 10523 10525 10527 10528 10528 10530 10534 10536 10535 10537 10541 10545 10548 10551 10556 10562 10566 10570 10571 10570 10571 10573 10574 10580 10587 10592 10597 10600 10597 10599 10606 10612 10615 10617 10618 10619 10623 10629 10632 10633 10635 10637 10638 10639 10639 10639 10641 10642 10643 10643 10642 10642 10642 10642 10642 10642 10643 10644 10646 10647 10649 10650 10651 10651 10650 10650 10650 10650 10650 10649 10649 10649 10649 10649 10649 10648 10649 10649 10650 10651
10513 10516 10517 10517 10517 10518 10519 10521 10522 10522 10523 10526 10529 10530 10530 10532 10536 10540 10543 10547 10553 10557 10560 10563 10565 10564 10566 10569 10571 10577 10583 10586 10590 10592 10592 10596 10604 10608 10610 10611 10612 10613 10617 10621 10624 10626 10629 10631 10633 10633 10632 10632 10634 10636 10637 10638 10638 10639 10639 10639 10640 10640 10641 10642 10643 10644 10646 10646 10647 10647 10647 10647 10646 10646 10646 10645 10645 10645 10645 10645 10644 10644 10644 10644 10645 10646
10509 10511 10512 10512 10513 10514 10515 10516 10517 10517 10519 10522 10523 10524 10526 10528 10532 10536 10539 10543 10549 10551 10553 10556 10558 10559 10561 10564 10568 10575 10578 10579 10584 10586 10587 10593 10600 10603 10604 10605 10606 10607 10610 10613 10618 10621 10624 10626 10628 10628 10628 10628 10629 10631 10632 10633 10634 10636 10636 10636 10637 10637 10638 10639 10640 10641 10642 10643 10643 10643 10643 10643 10642 10641 10641 10640 10640 10640 10641 10641 10640 10639 10639 10640 10641 10642
10505 10506 10507 10507 10508 10509 10510 10512 10512 10513 10515 10517 10518 10520 10522 10525 10529 10533 10536 10540 10544 10545 10547 10550 10551 10553 10555 10559 10566 10570 10571 10574 10578 10582 10584 10589 10594 10596 10597 10599 10600 10602 10604 10608 10612 10616 10618 10620 10621 10623 10624 10624 10625 10626 10628 10630 10630 10631 10631 10632 10633 10634 10635 10635 10636 10636 10637 10638 10639 10639 10638 10638 10637 10637 10636 10636 10635 10635 10636 10636 10636 10635 10635 10636 10637 10638
10501 10502 10502 10502 10503 10504 10506 10507 10507 10508 10510 10512 10515 10517 10518 10521 10525 10529 10532 10536 10538 10540 10542 10543 10546 10549 10552 10556 10562 10565 10566 10570 10575 10579 10582 10585 10588 10590 10592 10593 10595 10598 10601 10604 10608 10610 10612 10615 10617 10619 10619 10620 10622 10623 10624 10625 10626 10626 10627 10628 10630 10630 10631 10631 10632 10632 10633 10634 10634 10634 10633 10633 10632 10632 10631 10631 10630 10630 10631 10632 10631 10630 10631 10632 10633 10634
10497 10497 10497 10498 10499 10501 10502 10502 10503 10505 10507 10509 10511 10513 10515 10517 10521 10524 10527 10531 10533 10535 10537 10538 10543 10547 10549 10553 10558 10561 10564 10567 10572 10576 10578 10580 10582 10585 10587 10590 10593 10595 10597 10600 10603 10604 10607 10611 10614 10614 10615 10616 10618 10619 10620 10621 10622 10623 10625 10626 10627 10627 10627 10628 10628 10628 10629 10629 10629 10629 10628 10628 10627 10627 10626 10626 10625 10625 10626 10627 10627 10626 10626 10627 10628 10629
10493 10493 10494 10494 10495 10497 10498 10498 10499 10502 10504 10506 10508 10510 10512 10514 10517 10519 10523 10526 10529 10531 10533 10535 10540 10544 10547 10551 10555 10558 10562 10565 10569 10573 10575 10576 10578 10581 10583 10586 10588 10590 10592 10596 10598 10600 10602 10606 10609 10610 10610 10611 10613 10615 10617 10618 10619 10621 10623 10624 10624 10623 10623 10623 10624 10624 10623 10623 10623 10623 10623 10623 10623 10623 10622 10621 10621 10621 10622 10623 10623 10622 10622 10623 10623 10624
10489 10489 10491 10492 10492 10493 10494 10494 10496 10499 10500 10501 10503 10504 10506 10508 10511 10514 10518 10522 10525 10527 10529 10532 10537 10541 10545 10549 10553 10557 10559 10562 10566 10569 10571 10573 10575 10577 10579 10581 10583 10585 10588 10592 10594 10596 10598 10601 10604 10606 10607 10608 10610 10612 10613 10614 10616 10618 10619 10620 10619 10618 10618 10618 10618 10618 10618 10618 10618 10619 10619 10619 10619 10619 10619 10618 10618 10618 10619 10619 10619 10619 10619 10619 10619 10619
10485 10486 10488 10489 10488 10489 10490 10491 10493 10494 10495 10496 10498 10499 10501 10504 10508 10511 10515 10518 10521 10523 10526 10529 10534 10539 10543 10546 10552 10556 10557 10557 10561 10565 10568 10570 10572 10574 10575 10577 10580 10583 10586 10589 10590 10592 10594 10597 10600 10603 10604 10605 10607 10608 10609 10610 10611 10612 10613 10614 10614 10613 10613 10613 10613 10613 10614 10614 10614 10615 10615 10615 10615 10615 10614 10614 10614 10614 10615 10615 10616 10616 10615 10615 10615 10615
10480 10482 10484 10484 10484 10485 10486 10487 10488 10489 10490 10492 10493 10495 10498 10502 10505 10508 10511 10514 10517 10519 10522 10526 10531 10536 10540 10543 10548 10553 10553 10553 10556 10561 10565 10566 10568 10570 10572 10576 10580 10582 10583 10585 10587 10588 10590 10594 10597 10600 10602 10603 10604 10604 10605 10605 10606 10606 10607 10608 10608 10607 10607 10608 10609 10610 10610 10610 10610 10610 10610 10611 10610 10610 10609 10610 10610 10610 10610 10611 10611 10612 10611 10611 10611 10611
10477 10477 10478 10479 10480 10480 10481 10482 10483 10485 10487 10488 10490 10493 10496 10499 10502 10505 10507 10510 10512 10515 10519 10523 10528 10532 10535 10538 10542 10546 10547 10549 10552 10557 10561 10563 10565 10567 10570 10574 10577 10578 10580 10582 10584 10585 10589 10592 10596 10598 10600 10600 10601 10601 10601 10601 10601 10601 10601 10601 10601 10601 10601 10603 10605 10606 10606 10605 10605 10605 10606 10606 10605 10604 10604 10604 10604 10605 10605 10606 10606 10606 10607 10606 10606 10606
10472 10472 10472 10474 10475 10475 10476 10477 10480 10483 10485 10486 10488 10491 10494 10496 10499 10501 10504 10506 10509 10512 10516 10520 10524 10527 10530 10535 10538 10541 10544 10547 10550 10553 10557 10560 10563 10565 10568 10571 10574 10576 10579 10580 10582 10584 10587 10591 10594 10595 10596 10597 10599 10598 10597 10596 10596 10596 10596 10596 10597 10597 10596 10597 10599 10600 10600 10601 10602 10602 10602 10602 10601 10600 10599 10598 10599 10599 10599 10600 10601 10601 10601 10601 10600 10600
10468 10468 10468 10469 10470 10471 10472 10473 10477 10479 10481 10483 10486 10489 10491 10494 10496 10498 10501 10504 10506 10510 10513 10517 10521 10523 10527 10532 10535 10537 10541 10544 10547 10550 10553 10556 10560 10563 10568 10571 10573 10575 10578 10579 10581 10584 10588 10590 10590 10590 10590 10594 10596 10595 10593 10593 10592 10592 10593 10593 10593 10593 10592 10592 10592 10593 10595 10597 10598 10599 10600 10600 10598 10596 10594 10593 10592 10592 10592 10593 10594 10594 10595 10595 10594 10593
10465 10465 10464 10465 10467 10468 10468 10470 10472 10475 10477 10480 10482 10485 10487 10489 10493 10496 10498 10500 10503 10507 10511 10514 10517 10520 10525 10530 10533 10536 10539 10541 10544 10547 10549 10551 10555 10561 10567 10571 10572 10575 10578 10578 10580 10584 10587 10587 10585 10583 10584 10587 10591 10591 10591 10590 10589 10590 10591 10591 10590 10589 10588 10587 10587 10588 10590 10592 10594 10597 10599 10599 10595 10591 10589 10587 10585 10585 10585 10586 10587 10587 10589 10590 10589 10588
10461 10461 10460 10461 10463 10464 10465 10466 10468 10471 10474 10477 10479 10481 10482 10485 10489 10491 10493 10496 10499 10503 10507 10510 10513 10517 10521 10526 10531 10535 10537 10538 10541 10544 10545 10547 10551 10556 10562 10565 10566 10569 10572 10572 10574 10579 10581 10578 10577 10578 10580 10583 10585 10587 10588 10587 10587 10589 10590 10589 10587 10585 10584 10584 10584 10584 10585 10587 10590 10592 10594 10594 10591 10586 10583 10580 10579 10578 10578 10578 10579 10581 10582 10583 10583 10583
10456 10457 10456 10456 10459 10461 10461 10463 10465 10468 10470 10473 10476 10477 10479 10482 10484 10486 10488 10492 10496 10500 10503 10506 10509 10512 10516 10521 10525 10529 10531 10535 10538 10541 10542 10544 10547 10550 10553 10555 10557 10561 10563 10563 10566 10570 10572 10570 10571 10573 10574 10576 10577 10578 10580 10581 10582 10584 10584 10582 10582 10582 10582 10580 10579 10579 10581 10582 10584 10586 10587 10586 10585 10582 10580 10576 10573 10572 10572 10572 10573 10575 10576 10576 10577 10577
10452 10453 10452 10453 10456 10457 10458 10460 10461 10463 10465 10469 10472 10473 10475 10477 10479 10481 10484 10488 10493 10497 10500 10503 10505 10507 10511 10515 10519 10522 10525 10529 10533 10535 10537 10540 10543 10545 10547 10550 10552 10553 10554 10556 10558 10561 10563 10564 10565 10564 10564 10565 10567 10568 10569 10571 10573 10574 10574 10575 10576 10577 10577 10574 10573 10574 10576 10577 10579 10581 10581 10581 10580 10579 10576 10572 10568 10566 10566 10567 10568 10568 10568 10569 10570 10572
10447 10448 10448 10449 10451 10453 10455 10456 10457 10459 10461 10464 10467 10469 10471 10473 10475 10478 10481 10484 10489 10493 10495 10498 10501 10503 10506 10510 10514 10517 10520 10525 10529 10531 10532 10536 10539 10541 10543 10547 10548 10546 10546 10548 10551 10553 10554 10555 10556 10556 10556 10557 10558 10559 10560 10562 10564 10565 10566 10568 10569 10569 10569 10568 10568 10570 10570 10572 10574 10575 10575 10576 10575 10573 10571 10567 10565 10563 10562 10562 10562 10561 10561 10561 10562 10562
10441 10443 10444 10445 10447 10448 10450 10452 10453 10455 10457 10459 10462 10465 10467 10469 10472 10475 10478 10481 10485 10488 10490 10493 10496 10499 10501 10504 10508 10512 10516 10521 10524 10525 10528 10532 10534 10536 10538 10540 10540 10538 10538 10541 10543 10544 10545 10547 10548 10550 10550 10550 10550 10551 10553 10555 10557 10558 10560 10561 10561 10562 10563 10562 10563 10564 10564 10565 10567 10567 10568 10570 10570 10568 10566 10564 10563 10561 10559 10559 10558 10556 10555 10556 10555 10554
10435 10438 10440 10441 10442 10443 10445 10447 10449 10451 10452 10455 10458 10461 10463 10465 10468 10471 10474 10478 10481 10483 10486 10489 10491 10493 10495 10498 10501 10506 10512 10515 10517 10520 10523 10526 10528 10528 10529 10531 10531 10531 10532 10534 10536 10536 10538 10540 10542 10542 10543 10543 10544 10545 10547 10550 10551 10552 10554 10555 10555 10555 10556 10556 10557 10557 10557 10558 10559 10560 10562 10563 10564 10565 10563 10562 10560 10557 10556 10556 10554 10551 10550 10551 10550 10549
10428 10431 10434 10436 10437 10438 10440 10442 10444 10446 10448 10452 10455 10458 10460 10462 10464 10467 10470 10474 10477 10479 10482 10484 10486 10488 10490 10493 10496 10501 10506 10509 10512 10515 10518 10519 10520 10521 10521 10521 10523 10525 10525 10527 10528 10529 10531 10534 10534 10536 10537 10538 10539 10540 10542 10544 10545 10546 10548 10549 10549 10549 10549 10550 10550 10550 10550 10551 10552 10554 10556 10558 10561 10561 10560 10559 10556 10552 10551 10551 10550 10547 10544 10544 10544 10544
10421 10424 10427 10430 10432 10434 10435 10437 10439 10441 10444 10449 10452 10454 10455 10457 10460 10463 10465 10468 10471 10475 10478 10479 10481 10484 10486 10490 10493 10495 10499 10503 10506 10509 10510 10511 10512 10513 10513 10514 10517 10519 10519 10519 10521 10523 10526 10528 10529 10530 10531 10532 10533 10535 10537 10538 10539 10541 10543 10543 10543 10543 10543 10543 10543 10543 10544 10545 10547 10548 10550 10554 10556 10555 10554 10554 10550 10546 10547 10547 10545 10543 10538 10536 10537 10537
10414 10417 10421 10423 10426 10429 10431 10433 10434 10436 10440 10444 10446 10449 10450 10452 10455 10457 10459 10462 10465 10469 10473 10475 10477 10480 10482 10485 10488 10490 10492 10497 10500 10503 10504 10504 10506 10507 10508 10510 10512 10513 10513 10514 10516 10518 10521 10523 10523 10524 10524 10525 10526 10528 10530 10531 10533 10534 10536 10536 10536 10536 10535 10535 10535 10536 10537 10539 10541 10542 10543 10547 10550 10549 10549 10550 10546 10543 10543 10541 10539 10538 10532 10528 10528 10529
10408 10412 10415 10417 10420 10424 10427 10429 10429 10431 10435 10439 10441 10444 10445 10446 10448 10450 10453 10456 10459 10463 10467 10470 10474 10475 10477 10479 10481 10483 10486 10490 10493 10495 10496 10497 10499 10501 10502 10504 10505 10506 10508 10510 10511 10513 10516 10516 10516 10517 10519 10519 10520 10520 10522 10524 10525 10526 10528 10528 10529 10528 10528 10528 10528 10529 10531 10532 10534 10536 10537 10539 10542 10543 10544 10544 10543 10541 10539 10535 10533 10532 10527 10522 10521 10522
10404 10407 10409 10412 10415 10418 10421 10422 10422 10426 10430 10432 10434 10437 10439 10440 10442 10444 10448 10451 10454 10457 10461 10465 10469 10470 10472 10473 10475 10478 10482 10485 10488 10489 10488 10488 10491 10493 10494 10496 10498 10500 10503 10505 10506 10508 10509 10508 10508 10511 10513 10513 10513 10514 10516 10518 10518 10519 10520 10521 10522 10522 10522 10522 10523 10524 10525 10526 10527 10528 10529 10531 10534 10534 10534 10535 10535 10535 10534 10531 10529 10526 10523 10520 10517 10516
10398 10400 10403 10406 10409 10412 10414 10414 10415 10418 10422 10423 10426 10430 10432 10434 10436 10439 10442 10444 10447 10450 10454 10458 10463 10464 10466 10468 10470 10474 10478 10480 10481 10482 10481 10481 10483 10485 10486 10487 10490 10493 10496 10498 10499 10501 10501 10501 10502 10505 10506 10507 10507 10508 10510 10512 10512 10513 10515 10516 10516 10516 10516 10516 10516 10517 10518 10519 10520 10520 10520 10522 10523 10524 10524 10524 10525 10526 10526 10526 10524 10521 10519 10517 10515 10514
10391 10394 10396 10400 10403 10405 10407 10407 10408 10411 10413 10416 10420 10423 10426 10429 10430 10432 10435 10438 10442 10445 10448 10451 10455 10457 10459 10462 10464 10468 10471 10473 10473 10474 10474 10474 10476 10476 10477 10479 10482 10485 10488 10491 10492 10493 10494 10495 10497 10498 10498 10499 10501 10502 10503 10505 10506 10508 10509 10508 10508 10509 10509 10509 10509 10510 10511 10511 10511 10511 10511 10511 10512 10513 10514 10514 10514 10515 10516 10516 10516 10515 10513 10512 10511 10511
10386 10389 10391 10394 10397 10399 10400 10401 10403 10404 10406 10410 10414 10418 10421 10423 10424 10426 10430 10433 10436 10440 10442 10444 10447 10450 10452 10455 10458 10461 10463 10464 10465 10466 10468 10468 10468 10469 10470 10472 10474 10477 10480 10483 10484 10486 10487 10487 10489 10490 10491 10493 10495 10496 10497 10498 10499 10501 10502 10500 10500 10501 10501 10501 10502 10503 10503 10503 10502 10501 10501 10501 10501 10502 10502 10503 10503 10503 10504 10505 10505 10505 10505 10504 10503 10503
10380 10383 10386 10388 10391 10393 10395 10396 10398 10399 10400 10403 10408 10413 10415 10417 10419 10422 10426 10428 10431 10434 10436 10437 10440 10443 10445 10448 10451 10454 10456 10456 10457 10460 10461 10461 10461 10463 10463 10464 10466 10470 10473 10475 10476 10479 10480 10481 10482 10483 10483 10485 10487 10488 10489 10490 10491 10493 10493 10493 10492 10492 10492 10493 10493 10493 10495 10495 10495 10494 10492 10492 10491 10491 10491 10492 10492 10492 10492 10492 10493 10493 10493 10493 10493 10492
10374 10377 10380 10383 10385 10388 10390 10391 10393 10393 10394 10396 10401 10406 10409 10411 10414 10418 10421 10424 10427 10429 10430 10431 10434 10436 10439 10441 10443 10446 10448 10449 10450 10451 10452 10452 10453 10455 10456 10458 10461 10464 10466 10468 10470 10471 10473 10474 10475 10475 10476 10476 10478 10480 10481 10482 10482 10483 10484 10484 10484 10483 10483 10483 10483 10483 10484 10485 10485 10485 10484 10483 10482 10482 10482 10482 10482 10481 10481 10481 10481 10482 10481 10481 10481 10480
10368 10370 10374 10377 10379 10382 10384 10386 10387 10387 10389 10391 10394 10398 10402 10405 10408 10412 10415 10418 10421 10422 10423 10425 10427 10429 10432 10434 10435 10436 10438 10440 10441 10441 10442 10443 10445 10447 10450 10453 10456 10458 10459 10461 10462 10463 10465 10466 10466 10467 10468 10468 10469 10470 10471 10472 10473 10473 10473 10474 10474 10474 10473 10473 10473 10473 10473 10474 10474 10474 10474 10474 10473 10473 10473 10473 10473 10473 10472 10472 10471 10471 10470 10470 10470 10469
10362 10364 10367 10370 10373 10375 10377 10379 10380 10381 10383 10385 10388 10391 10395 10399 10402 10404 10407 10409 10412 10415 10416 10418 10420 10422 10425 10427 10426 10427 10428 10430 10431 10433 10434 10435 10438 10440 10443 10446 10448 10449 10450 10451 10453 10455 10456 10458 10458 10459 10459 10460 10460 10461 10461 10462 10463 10463 10464 10464 10464 10464 10464 10463 10463 10462 10462 10462 10463 10463 10464 10464 10464 10464 10463 10463 10463 10462 10462 10461 10461 10461 10460 10460 10460 10460
10357 10359 10362 10364 10366 10368 10370 10372 10373 10375 10376 10378 10381 10384 10388 10392 10395 10397 10398 10399 10403 10407 10410 10412 10413 10414 10416 10417 10417 10418 10421 10422 10424 10425 10427 10429 10431 10434 10435 10437 10438 10439 10441 10442 10444 10445 10447 10449 10449 10450 10451 10451 10452 10452 10452 10453 10454 10454 10455 10456 10455 10455 10454 10454 10453 10452 10452 10452 10453 10453 10454 10454 10453 10453 10453 10452 10452 10451 10450 10449 10449 10449 10449 10449 10449 10450
10351 10353 10355 10357 10359 10361 10363 10364 10365 10366 10368 10371 10373 10376 10379 10383 10386 10388 10390 10391 10393 10396 10401 10404 10405 10406 10406 10406 10407 10410 10414 10416 10418 10419 10419 10421 10423 10425 10427 10428 10429 10430 10431 10432 10434 10435 10437 10438 10438 10439 10440 10441 10442 10442 10443 10443 10444 10445 10446 10446 10446 10445 10445 10444 10444 10444 10444 10444 10444 10443 10443 10442 10442 10441 10441 10440 10440 10439 10438 10437 10437 10437 10437 10437 10437 10437
10343 10345 10347 10349 10351 10353 10354 10355 10356 10357 10359 10363 10366 10368 10370 10373 10376 10379 10382 10383 10384 10386 10389 10392 10395 10397 10397 10397 10398 10402 10405 10408 10410 10411 10411 10412 10413 10414 10416 10417 10419 10421 10422 10423 10423 10425 10426 10427 10427 10429 10430 10431 10432 10432 10432 10433 10434 10435 10435 10435 10435 10435 10435 10435 10436 10436 10435 10435 10434 10433 10432 10432 10431 10431 10430 10429 10428 10427 10427 10426 10425 10425 10425 10426 10426 10426
10334 10336 10338 10340 10342 10344 10345 10346 10348 10349 10351 10354 10357 10359 10361 10363 10366 10369 10372 10374 10375 10377 10378 10380 10383 10386 10388 10389 10390 10392 10395 10398 10400 10401 10401 10401 10402 10404 10406 10407 10408 10410 10412 10413 10414 10415 10416 10417 10418 10419 10421 10421 10422 10422 10422 10423 10424 10424 10424 10424 10424 10425 10426 10426 10427 10426 10425 10424 10423 10423 10422 10421 10420 10420 10419 10418 10417 10417 10416 10415 10414 10413 10413 10413 10413 10413
10326 10328 10331 10333 10334 10336 10338 10339 10340 10341 10343 10345 10347 10349 10352 10354 10357 10359 10362 10364 10366 10367 10368 10370 10371 10372 10375 10378 10381 10383 10385 10387 10389 10389 10390 10391 10392 10394 10395 10396 10396 10398 10402 10404 10405 10406 10407 10407 10407 10409 10410 10411 10412 10412 10412 10413 10413 10414 10413 10413 10413 10415 10416 10416 10416 10415 10414 10413 10412 10412 10411 10411 10410 10409 10408 10407 10407 10406 10405 10404 10403 10402 10402 10401 10400 10400
10319 10321 10324 10326 10327 10329 10331 10331 10332 10333 10334 10336 10338 10340 10343 10346 10348 10350 10352 10353 10355 10357 10359 10360 10361 10361 10362 10365 10369 10372 10374 10376 10378 10380 10381 10382 10382 10382 10383 10384 10386 10388 10391 10394 10396 10396 10397 10397 10396 10397 10399 10401 10402 10401 10401 10402 10403 10403 10403 10403 10404 10405 10405 10405 10404 10404 10403 10403 10402 10402 10401 10400 10399 10398 10397 10396 10396 10395 10394 10393 10392 10392 10390 10389 10388 10387
10312 10314 10317 10318 10320 10322 10324 10324 10325 10325 10326 10328 10329 10331 10333 10336 10338 10340 10342 10343 10345 10347 10349 10350 10351 10351 10351 10354 10357 10359 10362 10365 10368 10371 10373 10374 10373 10372 10372 10373 10375 10378 10381 10384 10386 10387 10386 10385 10384 10386 10389 10391 10390 10390 10390 10392 10393 10392 10392 10393 10393 10394 10394 10393 10392 10392 10391 10391 10390 10390 10389 10388 10387 10386 10385 10384 10383 10383 10382 10381 10380 10380 10379 10377 10376 10375
10305 10308 10309 10311 10312 10314 10316 10317 10317 10317 10318 10319 10321 10323 10324 10326 10328 10330 10332 10334 10335 10337 10338 10339 10340 10341 10342 10344 10347 10349 10352 10354 10357 10360 10362 10363 10362 10362 10361 10362 10365 10368 10371 10374 10376 10375 10374 10373 10374 10376 10379 10379 10378 10378 10379 10380 10380 10380 10381 10381 10381 10380 10380 10380 10379 10378 10378 10377 10376 10376 10375 10374 10373 10373 10372 10371 10370 10369 10368 10367 10366 10365 10365 10363 10362 10362
10300 10301 10302 10303 10305 10306 10307 10308 10308 10309 10309 10310 10312 10314 10316 10317 10319 10320 10322 10324 10325 10326 10328 10329 10330 10331 10332 10334 10337 10339 10342 10345 10347 10348 10349 10349 10350 10350 10350 10351 10354 10357 10359 10362 10363 10362 10362 10363 10364 10367 10368 10367 10366 10367 10367 10367 10367 10368 10368 10368 10367 10367 10367 10366 10366 10365 10364 10363 10362 10361 10361 10360 10359 10359 10358 10358 10356 10355 10354 10352 10351 10350 10350 10349 10347 10347
10294 10294 10294 10295 10296 10296 10297 10298 10299 10299 10300 10299 10300 10303 10306 10308 10309 10310 10311 10312 10313 10314 10316 10318 10319 10321 10322 10325 10327 10328 10331 10334 10337 10337 10337 10337 10337 10338 10339 10340 10342 10344 10346 10348 10349 10349 10350 10352 10354 10356 10356 10355 10355 10355 10354 10354 10354 10355 10355 10354 10354 10354 10354 10353 10353 10352 10351 10350 10349 10348 10347 10347 10346 10345 10344 10344 10343 10342 10340 10337 10335 10334 10335 10336 10334 10332